Torna al catalogo

STARLINK-36899

AttivoComunicazioniVLEO
NORAD 68058·PAYLOAD·🇺🇸 United States

Lanciato Mar 2, 2026 da Vandenberg Space Force Base

Loading…

Prossimi Passaggi (prossime 24 ore)

TLE

AggiornatoSource: CelesTrak SupGP

Epoca: Sep 15, 2026, 04:01 UTC

1 68058C 26041U   26258.16784722  .00107990  00000+0  31948-2 0  2580
2 68058  53.1572 246.2889 0001589  91.3024  46.4017 15.34293666    11

Traccia STARLINK-36899 in tempo reale con AllMySat

Download on the App Store